• In Romania
  • List of Countries
  • For 7 days
  • Water Temperature
  • Satellite Maps
  • Weather Map
  • Weather Widgets
  • user-avatar
    Login

    Hourly Weather Lugovoe

    Today, 24 September, Monday

    Time Temperature Precipitation Wind Pressure Humidity
    00:00 +8°C° 0 mm 4 mps 745 mmHg 87%
    01:00 +8°C° 0 mm 3 mps 745 mmHg 89%
    02:00 +8°C° 0 mm 3 mps 745 mmHg 90%
    03:00 +7°C° 0 mm 3 mps 745 mmHg 93%
    04:00 +7°C° 0 mm 3 mps 745 mmHg 93%
    05:00 +7°C° 0 mm 3 mps 745 mmHg 94%
    06:00 +7°C° 0 mm 3 mps 745 mmHg 94%
    07:00 +8°C° 0 mm 3 mps 745 mmHg 89%
    08:00 +9°C° 0 mm 3 mps 745 mmHg 85%
    09:00 +10°C° 0 mm 3 mps 745 mmHg 79%
    10:00 +11°C° 0 mm 4 mps 745 mmHg 74%
    11:00 +12°C° 0 mm 5 mps 744 mmHg 69%
    12:00 +13°C° 0 mm 5 mps 744 mmHg 64%
    13:00 +13°C° 0.2 mm 6 mps 744 mmHg 66%
    14:00 +11°C° 0.2 mm 6 mps 743 mmHg 68%
    15:00 +10°C° 0 mm 6 mps 743 mmHg 72%
    16:00 +10°C° 0.9 mm 7 mps 742 mmHg 75%
    17:00 +9°C° 0.9 mm 7 mps 741 mmHg 78%
    18:00 +9°C° 0.9 mm 8 mps 740 mmHg 81%
    19:00 +9°C° 1.4 mm 8 mps 739 mmHg 82%
    20:00 +8°C° 1.4 mm 9 mps 739 mmHg 84%
    21:00 +10°C° 1.4 mm 9 mps 738 mmHg 85%
    22:00 +10°C° 0.4 mm 9 mps 737 mmHg 86%
    23:00 +10°C° 0.4 mm 9 mps 737 mmHg 86%

    Tomorrow, 25 September, Tuesday

    Time Temperature Precipitation Wind Pressure Humidity
    00:00 +10°C° 0.4 mm 8 mps 736 mmHg 87%
    01:00 +10°C° 0.1 mm 8 mps 736 mmHg 86%
    02:00 +9°C° 0.1 mm 7 mps 736 mmHg 86%
    03:00 +9°C° 0.1 mm 7 mps 736 mmHg 85%
    04:00 +8°C° 0 mm 7 mps 736 mmHg 84%
    05:00 +8°C° 0 mm 7 mps 736 mmHg 83%
    06:00 +7°C° 0 mm 6 mps 736 mmHg 83%
    07:00 +8°C° 0 mm 7 mps 737 mmHg 82%
    08:00 +8°C° 0 mm 7 mps 737 mmHg 81%
    09:00 +8°C° 0 mm 7 mps 737 mmHg 80%
    10:00 +8°C° 0.1 mm 7 mps 738 mmHg 78%
    11:00 +9°C° 0.1 mm 7 mps 739 mmHg 76%
    12:00 +9°C° 0.1 mm 7 mps 739 mmHg 73%
    13:00 +9°C° 0.1 mm 7 mps 740 mmHg 73%
    14:00 +9°C° 0.1 mm 7 mps 740 mmHg 72%
    15:00 +9°C° 0.1 mm 7 mps 741 mmHg 71%
    16:00 +8°C° 0.1 mm 7 mps 742 mmHg 72%
    17:00 +8°C° 0.1 mm 7 mps 742 mmHg 73%
    18:00 +6°C° 0.1 mm 7 mps 743 mmHg 74%
    19:00 +7°C° 0 mm 6 mps 743 mmHg 75%
    20:00 +7°C° 0 mm 6 mps 744 mmHg 76%
    21:00 +5°C° 0 mm 6 mps 745 mmHg 77%
    22:00 +6°C° 0 mm 5 mps 745 mmHg 78%
    23:00 +6°C° 0 mm 5 mps 746 mmHg 78%

    Day after tomorrow, 26 September, Wednesday

    Time Temperature Precipitation Wind Pressure Humidity
    00:00 +5°C° 0 mm 5 mps 746 mmHg 78%
    01:00 +5°C° 0 mm 5 mps 747 mmHg 80%
    02:00 +5°C° 0 mm 5 mps 747 mmHg 81%
    03:00 +5°C° 0 mm 5 mps 748 mmHg 82%
    04:00 +3°C° 0 mm 5 mps 749 mmHg 84%
    05:00 +3°C° 0 mm 5 mps 749 mmHg 85%
    06:00 +3°C° 0 mm 4 mps 750 mmHg 86%
    07:00 +3°C° 0 mm 5 mps 750 mmHg 83%
    08:00 +3°C° 0 mm 5 mps 751 mmHg 79%
    09:00 +4°C° 0 mm 6 mps 752 mmHg 75%
    10:00 +6°C° 0 mm 5 mps 752 mmHg 70%
    11:00 +7°C° 0 mm 5 mps 752 mmHg 65%
    12:00 +8°C° 0 mm 5 mps 753 mmHg 60%
    13:00 +8°C° 0 mm 5 mps 753 mmHg 56%
    14:00 +9°C° 0 mm 5 mps 753 mmHg 53%
    15:00 +9°C° 0 mm 5 mps 753 mmHg 49%
    16:00 +8°C° 0 mm 4 mps 753 mmHg 53%
    17:00 +8°C° 0 mm 3 mps 753 mmHg 57%
    18:00 +7°C° 0 mm 3 mps 753 mmHg 61%
    19:00 +7°C° 0 mm 3 mps 753 mmHg 63%
    20:00 +5°C° 0 mm 3 mps 753 mmHg 65%
    21:00 +4°C° 0 mm 3 mps 753 mmHg 67%
    22:00 +4°C° 0 mm 4 mps 752 mmHg 67%
    23:00 +4°C° 0 mm 4 mps 752 mmHg 67%

    27 September, Thursday

    Time Temperature Precipitation Wind Pressure Humidity
    00:00 +3°C° 0 mm 5 mps 752 mmHg 67%
    01:00 +3°C° 0 mm 6 mps 751 mmHg 68%
    02:00 +4°C° 0 mm 6 mps 750 mmHg 68%
    03:00 +4°C° 0 mm 7 mps 749 mmHg 69%
    04:00 +4°C° 0.2 mm 7 mps 748 mmHg 69%
    05:00 +4°C° 0.2 mm 8 mps 747 mmHg 69%
    06:00 +3°C° 0.2 mm 9 mps 746 mmHg 69%
    07:00 +3°C° 0.9 mm 10 mps 746 mmHg 72%
    08:00 +3°C° 0.9 mm 10 mps 745 mmHg 75%
    09:00 +3°C° 0.9 mm 11 mps 744 mmHg 78%
    10:00 +5°C° 0.6 mm 10 mps 744 mmHg 80%
    11:00 +5°C° 0.6 mm 10 mps 743 mmHg 82%
    12:00 +5°C° 0.6 mm 10 mps 743 mmHg 84%
    13:00 +6°C° 0.3 mm 9 mps 743 mmHg 84%
    14:00 +7°C° 0.3 mm 9 mps 743 mmHg 84%
    15:00 +7°C° 0.3 mm 8 mps 743 mmHg 84%
    16:00 +7°C° 0.1 mm 8 mps 743 mmHg 84%
    17:00 +8°C° 0.1 mm 7 mps 743 mmHg 84%
    18:00 +8°C° 0.1 mm 6 mps 743 mmHg 83%
    19:00 +8°C° 0 mm 6 mps 744 mmHg 85%
    20:00 +7°C° 0 mm 6 mps 744 mmHg 86%
    21:00 +7°C° 0 mm 5 mps 744 mmHg 88%
    22:00 +7°C° 0 mm 5 mps 745 mmHg 88%
    23:00 +7°C° 0 mm 5 mps 745 mmHg 87%

    28 September, Friday

    Time Temperature Precipitation Wind Pressure Humidity
    00:00 +6°C° 0 mm 5 mps 745 mmHg 87%
    01:00 +6°C° 0 mm 5 mps 745 mmHg 88%
    02:00 +6°C° 0 mm 5 mps 745 mmHg 89%
    03:00 +6°C° 0 mm 5 mps 746 mmHg 90%
    04:00 +5°C° 0 mm 4 mps 746 mmHg 91%
    05:00 +5°C° 0 mm 4 mps 745 mmHg 92%
    06:00 +5°C° 0 mm 4 mps 745 mmHg 93%
    07:00 +6°C° 0 mm 5 mps 745 mmHg 89%
    08:00 +7°C° 0 mm 6 mps 744 mmHg 85%
    09:00 +8°C° 0 mm 7 mps 744 mmHg 81%
    10:00 +9°C° 0 mm 8 mps 743 mmHg 81%
    11:00 +10°C° 0 mm 9 mps 743 mmHg 81%
    12:00 +11°C° 0 mm 10 mps 742 mmHg 81%
    13:00 +12°C° 0.1 mm 10 mps 741 mmHg 82%
    14:00 +12°C° 0.1 mm 10 mps 741 mmHg 82%
    15:00 +12°C° 0.1 mm 9 mps 740 mmHg 83%
    16:00 +12°C° 0.2 mm 10 mps 740 mmHg 83%
    17:00 +12°C° 0.2 mm 10 mps 740 mmHg 83%
    18:00 +12°C° 0.2 mm 10 mps 740 mmHg 83%
    19:00 +11°C° 0.3 mm 9 mps 741 mmHg 82%
    20:00 +9°C° 0.3 mm 8 mps 742 mmHg 82%
    21:00 +8°C° 0.3 mm 7 mps 743 mmHg 81%
    22:00 +7°C° 0 mm 6 mps 744 mmHg 83%
    23:00 +6°C° 0 mm 5 mps 745 mmHg 85%

    29 September, Saturday

    Time Temperature Precipitation Wind Pressure Humidity
    00:00 +4°C° 0 mm 4 mps 746 mmHg 87%
    01:00 +4°C° 0 mm 3 mps 747 mmHg 89%
    02:00 +3°C° 0 mm 3 mps 747 mmHg 90%
    03:00 +3°C° 0 mm 3 mps 748 mmHg 92%
    04:00 +3°C° 0 mm 2 mps 749 mmHg 92%
    05:00 +3°C° 0 mm 2 mps 749 mmHg 93%
    06:00 +4°C° 0 mm 1 mps 749 mmHg 93%
    07:00 +5°C° 0 mm 1 mps 750 mmHg 87%
    08:00 +6°C° 0 mm 1 mps 750 mmHg 81%
    09:00 +7°C° 0 mm 1 mps 750 mmHg 75%
    10:00 +8°C° 0 mm 1 mps 751 mmHg 68%
    11:00 +9°C° 0 mm 1 mps 751 mmHg 62%
    12:00 +9°C° 0 mm 2 mps 751 mmHg 55%
    13:00 +9°C° 0 mm 2 mps 750 mmHg 53%
    14:00 +10°C° 0 mm 2 mps 750 mmHg 51%
    15:00 +10°C° 0 mm 2 mps 750 mmHg 49%
    16:00 +10°C° 0 mm 1 mps 750 mmHg 52%
    17:00 +10°C° 0 mm 1 mps 750 mmHg 55%
    18:00 +9°C° 0 mm 1 mps 750 mmHg 59%
    19:00 +8°C° 0 mm 1 mps 751 mmHg 61%
    20:00 +8°C° 0 mm 1 mps 751 mmHg 63%
    21:00 +7°C° 0 mm 1 mps 752 mmHg 65%
    22:00 +7°C° 0 mm 1 mps 752 mmHg 68%
    23:00 +5°C° 0 mm 2 mps 752 mmHg 70%
    Show more